Weather History for KPSO - December, 2013

Change the Weather History Date:

Sunday, December 1, 2013

  Actual Average (KDRO) Record (KDRO)
Temperature  
Mean Temperature 24 °F 30 °F  
Max Temperature 29 °F 43 °F - ()
Min Temperature 20 °F 17 °F - ()
Degree Days  
Heating Degree Days 40 35  
Month to date heating degree days 35  
Since 1 July heating degree days 1708  
Cooling Degree Days 0 0  
Month to date cooling degree days 0  
Year to date cooling degree days 243  
Moisture  
Dew Point 26 °F    
Average Humidity 98    
Maximum Humidity 100    
Minimum Humidity 83    
Precipitation  
Precipitation 0.00 in 0.03 in - ()
Month to date precipitation 0.03  
Year to date precipitation 14.93  
Sea Level Pressure  
Sea Level Pressure 30.30 in    
Wind  
Wind Speed 1 mph (SW)    
Max Wind Speed 8 mph    
Max Gust Speed -    
Visibility 6 miles    
Events      
T = Trace of Precipitation, MM = Missing Value Source: NWS Daily Summary

Daily Weather History Graph

Daily Weather History Graph

Search for Another Location

Airport or City:

Trip Planner

Search our weather history database for the weather conditions in past years. The results will help you decide how hot, cold, wet, or windy it might be!

Date:

Astronomy

Dec. 01, 2013 Rise Set
Actual Time 7:03 AM MST 4:50 PM MST
Civil Twilight 6:35 AM MST 5:19 PM MST
Nautical Twilight 6:02 AM MST 5:51 PM MST
Astronomical Twilight 5:31 AM MST 6:23 PM MST
Moon 5:26 AM MST (12/1) 4:01 PM MST (12/1)
Length of Visible Light 10h 44m
Length of Day
9h 46m
Waning Crescent, 2% of the Moon is Illuminated
Dec 1
Waning Crescent
Dec 2
New
Dec 9
First Quarter
Dec 17
Full
Dec 25
Last Quarter

Hourly Weather History & Observations

Time (MST) Temp. Windchill Dew Point Humidity Pressure Visibility Wind Dir Wind Speed Gust Speed Precip Events Conditions
12:15 AM 25.0 °F - 24.8 °F 99% 30.32 in 10.0 mi Calm Calm - N/A   Clear
12:35 AM 26.4 °F - 26.2 °F 99% 30.31 in 10.0 mi Calm Calm - N/A   Clear
12:55 AM 24.4 °F - 24.3 °F 99% 30.31 in 2.0 mi Calm Calm - N/A   Clear
1:15 AM 26.4 °F - 26.1 °F 99% 30.31 in 10.0 mi Calm Calm - N/A   Clear
1:35 AM 23.9 °F - 23.7 °F 99% 30.31 in 10.0 mi Calm Calm - N/A   Clear
1:55 AM 25.2 °F - 25.0 °F 99% 30.31 in 10.0 mi Calm Calm - N/A   Clear
2:15 AM 24.3 °F - 23.9 °F 99% 30.31 in 10.0 mi Calm Calm - N/A   Clear
2:35 AM 23.9 °F - 23.7 °F 99% 30.32 in 7.0 mi Calm Calm - N/A   Clear
2:55 AM 23.0 °F - 22.5 °F 98% 30.32 in 10.0 mi Calm Calm - N/A   Clear
3:15 AM 23.0 °F - 22.3 °F 97% 30.32 in 10.0 mi Calm Calm - N/A   Clear
3:35 AM 24.6 °F - 24.3 °F 99% 30.31 in 10.0 mi Calm Calm - N/A   Clear
3:55 AM 22.8 °F - 22.1 °F 97% 30.31 in 10.0 mi Calm Calm - N/A   Clear
4:15 AM 22.8 °F - 22.1 °F 97% 30.31 in 10.0 mi Calm Calm - N/A   Clear
4:35 AM 23.7 °F - 23.2 °F 98% 30.30 in 10.0 mi Calm Calm - N/A   Clear
4:55 AM 22.6 °F - 22.3 °F 99% 30.31 in 10.0 mi Calm Calm - N/A   Clear
5:15 AM 22.1 °F - 21.7 °F 99% 30.30 in 10.0 mi Calm Calm - N/A   Clear
5:35 AM 23.0 °F - 22.6 °F 99% 30.30 in 10.0 mi Calm Calm - N/A   Clear
5:55 AM 21.7 °F - 21.0 °F 97% 30.31 in 10.0 mi Calm Calm - N/A   Clear
6:15 AM 22.3 °F - 21.7 °F 98% 30.32 in 10.0 mi Calm Calm - N/A   Clear
6:35 AM 20.8 °F - 19.9 °F 96% 30.32 in 10.0 mi Calm Calm - N/A   Clear
6:55 AM 20.3 °F - 19.4 °F 96% 30.32 in 10.0 mi Calm Calm - N/A   Scattered Clouds
7:15 AM 21.4 °F - 20.5 °F 96% 30.33 in 10.0 mi Calm Calm - N/A   Overcast
7:35 AM 23.4 °F - 23.0 °F 99% 30.33 in 10.0 mi Calm Calm - N/A   Mostly Cloudy
7:55 AM 23.0 °F - 22.3 °F 97% 30.34 in 5.0 mi Calm Calm - N/A   Scattered Clouds
8:15 AM 24.1 °F - 23.5 °F 98% 30.34 in 10.0 mi Calm Calm - N/A   Mostly Cloudy
8:35 AM 24.6 °F - 23.9 °F 97% 30.33 in 10.0 mi Calm Calm - N/A   Scattered Clouds
8:55 AM 25.5 °F - 24.8 °F 97% 30.34 in 10.0 mi Calm Calm - N/A   Clear
9:15 AM 26.2 °F 22.1 °F 25.7 °F 98% 30.34 in 10.0 mi South 3.5 mph - N/A   Clear
9:35 AM 27.7 °F 23.8 °F 26.6 °F 96% 30.34 in 10.0 mi SSW 3.5 mph - N/A   Clear
9:55 AM 28.6 °F 23.5 °F 24.6 °F 85% 30.35 in 10.0 mi SSW 4.6 mph - N/A   Clear
10:15 AM 29.3 °F 23.2 °F 24.6 °F 83% 30.35 in 10.0 mi SSW 5.8 mph - N/A   Clear
10:35 AM 29.3 °F 24.3 °F 24.6 °F 83% 30.34 in 10.0 mi SSW 4.6 mph - N/A   Clear
10:55 AM 28.9 °F 22.8 °F 24.8 °F 84% 30.34 in 10.0 mi SSW 5.8 mph - N/A   Clear
11:15 AM 28.4 °F 20.4 °F 26.2 °F 92% 30.34 in 10.0 mi SW 8.1 mph - N/A   Scattered Clouds
11:35 AM 27.9 °F 19.8 °F 26.8 °F 96% 30.33 in 1.8 mi WSW 8.1 mph - N/A   Overcast
11:55 AM 28.4 °F 22.2 °F 27.5 °F 96% 30.32 in 1.0 mi SW 5.8 mph - N/A   Overcast
12:15 PM 28.8 °F 22.6 °F 28.0 °F 97% 30.32 in 2.0 mi SW 5.8 mph - N/A   Overcast
12:35 PM 28.6 °F 24.8 °F 28.2 °F 99% 30.31 in 1.5 mi SSW 3.5 mph - N/A   Overcast
12:55 PM 28.8 °F - 28.4 °F 99% 30.30 in 1.5 mi Calm Calm - N/A   Overcast
1:15 PM 28.8 °F - 28.6 °F 99% 30.30 in 1.8 mi Calm Calm - N/A   Overcast
1:35 PM 29.1 °F 25.4 °F 28.8 °F 99% 30.30 in 1.8 mi SW 3.5 mph - N/A   Overcast
1:55 PM 28.8 °F 25.0 °F 28.4 °F 99% 30.29 in 0.8 mi West 3.5 mph - N/A   Overcast
2:15 PM 28.4 °F 24.6 °F 28.4 °F 100% 30.29 in 0.8 mi West 3.5 mph - N/A   Overcast
2:35 PM 28.9 °F - 28.9 °F 100% 30.28 in 1.2 mi Calm Calm - N/A   Overcast
2:55 PM 28.8 °F - 28.8 °F 100% 30.28 in 0.8 mi Calm Calm - N/A   Overcast
3:15 PM 28.9 °F - 28.9 °F 100% 30.28 in 0.8 mi Calm Calm - N/A   Overcast
3:35 PM 28.6 °F - 28.6 °F 100% 30.29 in 1.0 mi Calm Calm - N/A   Overcast
3:55 PM 28.8 °F - 28.8 °F 100% 30.29 in 1.0 mi Calm Calm - N/A   Overcast
4:15 PM 28.4 °F - 28.4 °F 100% 30.29 in 2.0 mi Calm Calm - N/A   Overcast
4:35 PM 28.4 °F 23.3 °F 28.4 °F 100% 30.28 in 1.2 mi SSW 4.6 mph - N/A   Overcast
4:55 PM 28.2 °F - 28.2 °F 100% 30.28 in 1.2 mi Calm Calm - N/A   Overcast
5:15 PM 28.2 °F - 28.2 °F 100% 30.29 in 3.0 mi Calm Calm - N/A   Overcast
5:35 PM 28.4 °F - 28.4 °F 100% 30.28 in 1.0 mi Calm Calm - N/A   Overcast
5:55 PM 28.2 °F 23.1 °F 28.2 °F 100% 30.28 in 2.5 mi WSW 4.6 mph - N/A   Overcast
6:15 PM 27.9 °F - 27.9 °F 100% 30.28 in 2.5 mi Calm Calm - N/A   Overcast
6:35 PM 28.0 °F 22.8 °F 28.0 °F 100% 30.29 in 3.0 mi SSW 4.6 mph - N/A   Overcast
6:55 PM 27.5 °F - 27.5 °F 100% 30.28 in 3.0 mi Calm Calm - N/A   Overcast
7:15 PM 27.5 °F - 27.5 °F 100% 30.29 in 2.5 mi Calm Calm - N/A   Overcast
7:35 PM 27.5 °F - 27.5 °F 100% 30.29 in 2.0 mi Calm Calm - N/A   Overcast
7:55 PM 27.7 °F - 27.7 °F 100% 30.29 in 4.0 mi Calm Calm - N/A   Overcast
8:15 PM 27.3 °F - 27.3 °F 100% 30.28 in 3.0 mi Calm Calm - N/A   Overcast
8:35 PM 27.3 °F - 27.3 °F 100% 30.29 in 5.0 mi Calm Calm - N/A   Overcast
8:55 PM 27.3 °F - 27.3 °F 100% 30.28 in 5.0 mi Calm Calm - N/A   Overcast
9:15 PM 27.3 °F - 27.3 °F 100% 30.29 in 4.0 mi Calm Calm - N/A   Overcast
9:35 PM 27.1 °F - 27.0 °F 99% 30.28 in 4.0 mi Calm Calm - N/A   Overcast
9:55 PM 27.1 °F - 27.1 °F 100% 30.27 in 3.0 mi Calm Calm - N/A   Overcast
10:15 PM 27.3 °F - 27.3 °F 100% 30.27 in 3.0 mi Calm Calm - N/A   Overcast
10:35 PM 27.1 °F - 27.0 °F 99% 30.27 in 7.0 mi Calm Calm - N/A   Overcast
10:55 PM 27.1 °F 23.2 °F 27.0 °F 99% 30.27 in 7.0 mi West 3.5 mph - N/A   Overcast
11:15 PM 27.3 °F - 27.1 °F 99% 30.27 in 7.0 mi Calm Calm - N/A   Overcast
11:35 PM 27.0 °F - 26.6 °F 99% 30.27 in 10.0 mi Calm Calm - N/A   Overcast
11:55 PM 27.0 °F - 26.6 °F 99% 30.27 in 10.0 mi Calm Calm - N/A   Overcast